sat.trackr.live / text

‹ back to catalog

TRACERS 1

NORAD 64870 · 2025-154B

PAYLOAD ACTIVE UNKNOWN

§ Identity

Operator
Country
US
Launch date
2025-07-23
Launch site
AFWTR
Launch vehicle
Mass (kg)
RCS (m²)

External: N2YO · Heavens-Above · Gunter

§ Orbital elements

Epoch: 2026-09-21T17:06:50.564736Z

Period
96.41 min
Inclination
97.6592°
Eccentricity
0.0004084
Mean motion
14.93694229 rev/d
Perigee alt
583.6 km
Apogee alt
589.3 km
Semi-major
6,964.6 km
B*
9.8716e-5
RAAN
325.9689°
Arg perigee
303.9055°
Mean anomaly
56.1776°
Rev number
6,340

§ Raw data

TRACERS 11 64870U 25154B   26264.71308524  .00000989  00000+0  98716-4 0  99922 64870  97.6592 325.9689 0004084 303.9055  56.1776 14.93694229 63402

JSON: /api/v1/satellites/64870 · /tle

For live sub-satellite position, see the globe view (requires WebGL).

§ Visibility from observer

Set your observer location to see the next 7 days of passes ≥ 10°. The values pass through the URL so the page stays shareable.

No JS? Fill the form by hand. The geolocation button needs JavaScript.